QPF
0.00 0.00 0.00 0.00 0.00 0.00 0.00 0.01 0.00 0.00 0.00 0.00 0.00 0.01 0.00 0.00 0.01 0.02 0.03 0.05 0.04 0.04 0.05 0.08 0.07 0.06 0.04 0.06 0.10 0.10 0.10 0.12 0.14 0.16 0.17 0.14 0.11 0.11 0.10 0.10 0.10 0.09 0.10 0.09 0.06 0.04 0.05 0.05 0.04
0.00 0.00 0.00 0.00 0.00 0.00 0.01 0.01 0.00 0.00 0.00 0.00 0.00 0.00 0.00 0.00 0.01 0.01 0.03 0.04 0.02 0.02 0.03 0.04 0.06 0.05 0.04 0.05 0.07 0.07 0.09 0.09 0.10 0.12 0.12 0.10 0.09 0.09 0.09 0.08 0.08 0.08 0.10 0.08 0.05 0.03 0.03 0.02 0.03
0.00 0.00 0.00 0.00 0.00 0.01 0.02 0.03 0.01 0.00 0.00 0.00 0.00 0.00 0.00 0.00 0.01 0.01 0.02 0.02 0.01 0.01 0.02 0.03 0.03 0.03 0.04 0.03 0.04 0.05 0.05 0.05 0.06 0.07 0.08 0.09 0.09 0.09 0.08 0.07 0.07 0.07 0.08 0.07 0.05 0.04 0.03 0.02 0.02
0.00 0.00 0.00 0.00 0.00 0.01 0.03 0.03 0.02 0.01 0.00 0.00 0.00 0.00 0.00 0.01 0.01 0.01 0.02 0.01 0.00 0.01 0.01 0.01 0.02 0.02 0.03 0.03 0.03 0.04 0.04 0.04 0.05 0.05 0.06 0.07 0.08 0.08 0.08 0.07 0.07 0.06 0.07 0.05 0.04 0.03 0.03 0.03 0.03
0.00 0.00 0.00 0.00 0.00 0.01 0.01 0.02 0.02 0.01 0.00 0.00 0.00 0.01 0.01 0.01 0.01 0.01 0.01 0.01 0.00 0.01 0.01 0.01 0.01 0.02 0.02 0.02 0.03 0.02 0.03 0.04 0.04 0.05 0.06 0.08 0.10 0.10 0.08 0.06 0.07 0.07 0.07 0.05 0.03 0.03 0.03 0.03 0.04
0.00 0.00 0.00 0.00 0.00 0.01 0.01 0.01 0.01 0.01 0.00 0.00 0.00 0.01 0.02 0.01 0.01 0.00 0.00 0.01 0.01 0.01 0.01 0.01 0.01 0.01 0.01 0.02 0.02 0.02 0.02 0.03 0.03 0.04 0.06 0.09 0.13 0.10 0.08 0.07 0.08 0.09 0.06 0.04 0.02 0.03 0.03 0.03 0.03
0.00 0.00 0.00 0.00 0.00 0.00 0.01 0.00 0.00 0.00 0.00 0.00 0.01 0.02 0.02 0.02 0.01 0.00 0.00 0.00 0.00 0.00 0.00 0.00 0.00 0.01 0.02 0.02 0.05 0.06 0.03 0.03 0.02 0.03 0.06 0.09 0.10 0.07 0.07 0.07 0.07 0.07 0.05 0.03 0.03 0.02 0.03 0.03 0.03
0.00 0.00 0.00 0.00 0.00 0.00 0.01 0.00 0.00 0.00 0.00 0.00 0.01 0.02 0.03 0.03 0.01 0.00 0.01 0.00 0.00 0.00 0.00 0.00 0.00 0.00 0.01 0.04 0.09 0.12 0.06 0.04 0.03 0.04 0.08 0.10 0.08 0.07 0.06 0.05 0.05 0.05 0.04 0.03 0.03 0.03 0.04 0.05 0.04
0.00 0.00 0.00 0.00 0.00 0.00 0.00 0.01 0.00 0.00 0.00 0.00 0.00 0.02 0.05 0.04 0.02 0.01 0.00 0.01 0.00 0.00 0.00 0.00 0.00 0.00 0.01 0.05 0.09 0.11 0.10 0.08 0.08 0.12 0.15 0.11 0.06 0.06 0.05 0.03 0.03 0.04 0.04 0.04 0.04 0.04 0.04 0.05 0.04
0.00 0.00 0.00 0.00 0.00 0.00 0.00 0.00 0.00 0.00 0.00 0.00 0.01 0.02 0.06 0.06 0.03 0.01 0.01 0.01 0.00 0.00 0.00 0.00 0.00 0.00 0.01 0.03 0.03 0.06 0.07 0.09 0.14 0.20 0.18 0.09 0.06 0.06 0.06 0.04 0.04 0.04 0.04 0.04 0.05 0.05 0.04 0.02 0.01
0.00 0.00 0.00 0.00 0.00 0.00 0.00 0.00 0.00 0.00 0.00 0.00 0.00 0.01 0.02 0.04 0.03 0.02 0.01 0.01 0.01 0.01 0.00 0.00 0.00 0.00 0.00 0.01 0.02 0.04 0.06 0.08 0.15 0.18 0.10 0.05 0.05 0.06 0.04 0.03 0.03 0.03 0.02 0.02 0.02 0.02 0.02 0.02 0.01
0.00 0.00 0.00 0.00 0.00 0.00 0.00 0.00 0.00 0.00 0.00 0.00 0.00 0.00 0.02 0.09 0.07 0.04 0.02 0.01 0.02 0.02 0.01 0.01 0.00 0.01 0.01 0.01 0.03 0.03 0.04 0.07 0.11 0.09 0.05 0.03 0.04 0.04 0.02 0.02 0.01 0.01 0.01 0.01 0.01 0.02 0.02 0.02 0.02
0.00 0.00 0.00 0.00 0.00 0.00 0.00 0.00 0.00 0.00 0.00 0.00 0.00 0.00 0.01 0.12 0.17 0.07 0.01 0.01 0.03 0.03 0.03 0.02 0.02 0.03 0.04 0.04 0.04 0.04 0.04 0.06 0.07 0.05 0.04 0.03 0.02 0.02 0.01 0.01 0.01 0.01 0.01 0.01 0.01 0.01 0.01 0.01 0.02
0.00 0.00 0.00 0.00 0.00 0.00 0.00 0.00 0.00 0.00 0.00 0.00 0.00 0.00 0.00 0.01 0.03 0.02 0.01 0.02 0.02 0.03 0.04 0.03 0.04 0.06 0.08 0.06 0.06 0.05 0.04 0.05 0.04 0.04 0.03 0.02 0.01 0.01 0.01 0.01 0.01 0.01 0.01 0.02 0.02 0.01 0.01 0.02 0.02
0.00 0.00 0.00 0.00 0.00 0.00 0.00 0.00 0.00 0.00 0.00 0.00 0.00 0.00 0.00 0.01 0.01 0.03 0.06 0.04 0.03 0.02 0.02 0.02 0.02 0.02 0.07 0.12 0.10 0.07 0.06 0.05 0.04 0.03 0.02 0.01 0.01 0.02 0.02 0.02 0.02 0.02 0.01 0.01 0.01 0.01 0.02 0.02 0.03
0.00 0.00 0.00 0.00 0.00 0.00 0.00 0.00 0.01 0.00 0.00 0.00 0.01 0.03 0.01 0.01 0.03 0.07 0.09 0.04 0.02 0.01 0.01 0.01 0.01 0.02 0.05 0.10 0.11 0.07 0.06 0.05 0.05 0.04 0.03 0.03 0.03 0.04 0.03 0.03 0.02 0.01 0.02 0.02 0.02 0.03 0.03 0.03 0.03
0.00 0.00 0.00 0.00 0.00 0.00 0.00 0.00 0.01 0.00 0.00 0.00 0.00 0.01 0.01 0.01 0.02 0.03 0.02 0.01 0.01 0.00 0.00 0.00 0.00 0.01 0.02 0.03 0.04 0.04 0.04 0.04 0.04 0.02 0.02 0.03 0.05 0.05 0.04 0.04 0.03 0.03 0.04 0.04 0.03 0.03 0.03 0.05 0.06
0.00 0.00 0.00 0.00 0.00 0.00 0.00 0.00 0.01 0.01 0.00 0.00 0.00 0.00 0.00 0.00 0.00 0.00 0.00 0.00 0.00 0.00 0.00 0.00 0.00 0.00 0.01 0.01 0.02 0.02 0.02 0.02 0.03 0.02 0.02 0.03 0.04 0.05 0.05 0.05 0.04 0.03 0.05 0.05 0.04 0.04 0.04 0.06 0.06
0.00 0.00 0.00 0.00 0.00 0.00 0.00 0.00 0.01 0.01 0.01 0.01 0.00 0.00 0.00 0.00 0.00 0.00 0.00 0.00 0.00 0.00 0.00 0.00 0.00 0.00 0.01 0.01 0.01 0.02 0.03 0.02 0.02 0.02 0.01 0.03 0.02 0.03 0.03 0.04 0.05 0.05 0.04 0.04 0.05 0.05 0.05 0.05 0.06
0.00 0.00 0.00 0.00 0.00 0.00 0.01 0.01 0.01 0.01 0.01 0.01 0.01 0.01 0.00 0.00 0.00 0.00 0.00 0.00 0.00 0.00 0.00 0.00 0.00 0.00 0.00 0.00 0.01 0.02 0.03 0.02 0.02 0.01 0.02 0.03 0.03 0.02 0.03 0.05 0.05 0.05 0.05 0.04 0.05 0.06 0.05 0.05 0.06
0.00 0.00 0.00 0.00 0.00 0.00 0.00 0.01 0.02 0.01 0.01 0.01 0.01 0.01 0.00 0.00 0.00 0.00 0.00 0.00 0.00 0.01 0.01 0.01 0.01 0.01 0.01 0.01 0.01 0.01 0.02 0.02 0.02 0.03 0.04 0.04 0.03 0.04 0.06 0.07 0.08 0.07 0.06 0.05 0.07 0.09 0.09 0.05 0.06
0.00 0.00 0.00 0.00 0.00 0.00 0.00 0.01 0.01 0.01 0.01 0.00 0.00 0.01 0.00 0.00 0.00 0.00 0.00 0.00 0.00 0.01 0.01 0.01 0.01 0.01 0.01 0.01 0.01 0.02 0.03 0.02 0.03 0.04 0.04 0.03 0.03 0.04 0.05 0.07 0.09 0.08 0.06 0.05 0.05 0.07 0.10 0.08 0.05
0.00 0.00 0.00 0.00 0.00 0.00 0.00 0.00 0.00 0.00 0.00 0.00 0.00 0.01 0.00 0.00 0.00 0.00 0.00 0.00 0.00 0.01 0.01 0.01 0.02 0.02 0.02 0.03 0.03 0.03 0.03 0.03 0.04 0.03 0.02 0.02 0.02 0.03 0.03 0.04 0.06 0.09 0.06 0.05 0.04 0.06 0.09 0.08 0.05
0.00 0.00 0.00 0.00 0.00 0.00 0.00 0.00 0.00 0.00 0.00 0.00 0.00 0.01 0.00 0.00 0.00 0.00 0.01 0.01 0.01 0.00 0.00 0.01 0.02 0.03 0.04 0.04 0.04 0.03 0.02 0.02 0.03 0.02 0.01 0.02 0.03 0.03 0.03 0.04 0.04 0.05 0.05 0.04 0.04 0.04 0.06 0.06 0.05
0.00 0.00 0.00 0.00 0.00 0.00 0.00 0.00 0.00 0.00 0.00 0.00 0.01 0.01 0.00 0.01 0.01 0.01 0.01 0.01 0.01 0.00 0.00 0.01 0.05 0.07 0.06 0.05 0.05 0.03 0.02 0.03 0.02 0.01 0.01 0.02 0.04 0.04 0.03 0.03 0.04 0.04 0.05 0.04 0.03 0.03 0.03 0.04 0.04
0.00 0.00 0.00 0.00 0.00 0.00 0.00 0.00 0.00 0.00 0.00 0.00 0.00 0.01 0.01 0.01 0.01 0.01 0.01 0.01 0.01 0.01 0.01 0.02 0.06 0.08 0.08 0.07 0.05 0.04 0.04 0.05 0.03 0.02 0.01 0.02 0.04 0.03 0.03 0.03 0.04 0.05 0.04 0.04 0.04 0.03 0.03 0.03 0.03
0.00 0.00 0.00 0.00 0.00 0.00 0.00 0.00 0.00 0.00 0.00 0.00 0.00 0.01 0.01 0.01 0.02 0.01 0.01 0.01 0.01 0.02 0.04 0.03 0.04 0.10 0.09 0.07 0.05 0.04 0.07 0.06 0.03 0.03 0.02 0.02 0.02 0.02 0.02 0.02 0.04 0.05 0.04 0.04 0.05 0.06 0.05 0.04 0.04
0.00 0.00 0.00 0.00 0.00 0.00 0.00 0.00 0.00 0.00 0.00 0.01 0.00 0.01 0.01 0.02 0.02 0.01 0.01 0.01 0.01 0.03 0.06 0.05 0.04 0.07 0.09 0.04 0.03 0.04 0.04 0.03 0.03 0.03 0.03 0.02 0.02 0.03 0.02 0.02 0.03 0.04 0.04 0.05 0.07 0.07 0.06 0.06 0.06
0.00 0.00 0.00 0.00 0.00 0.00 0.00 0.00 0.00 0.00 0.01 0.01 0.01 0.01 0.02 0.03 0.02 0.01 0.01 0.02 0.03 0.03 0.03 0.04 0.04 0.03 0.04 0.04 0.04 0.05 0.04 0.04 0.03 0.02 0.03 0.03 0.03 0.04 0.03 0.03 0.04 0.05 0.07 0.08 0.09 0.07 0.07 0.06 0.06
0.00 0.00 0.00 0.00 0.00 0.00 0.00 0.00 0.00 0.01 0.01 0.01 0.02 0.03 0.02 0.03 0.03 0.02 0.02 0.02 0.03 0.05 0.04 0.04 0.04 0.04 0.04 0.05 0.06 0.05 0.04 0.04 0.04 0.03 0.03 0.03 0.05 0.05 0.05 0.06 0.07 0.07 0.08 0.08 0.07 0.06 0.06 0.05 0.05
MSLP
1003.84 1005.06 1006.66 1008.44 1010.17 1011.68 1012.81 1013.51 1013.80 1013.79 1013.63 1013.45 1013.37 1013.43 1013.63 1013.90 1014.15 1014.28 1014.22 1013.96 1013.54 1013.04 1012.55 1012.15 1011.90 1011.81 1011.86 1011.97 1012.10 1012.18 1012.18 1012.11 1011.99 1011.88 1011.83 1011.86 1011.97 1012.15 1012.37 1012.58 1012.75 1012.87 1012.95 1013.03 1013.13 1013.30 1013.54 1013.85 1014.21
1004.44 1005.94 1007.75 1009.62 1011.34 1012.72 1013.64 1014.06 1014.07 1013.78 1013.39 1013.05 1012.88 1012.92 1013.14 1013.47 1013.79 1013.99 1014.01 1013.83 1013.49 1013.07 1012.65 1012.33 1012.16 1012.14 1012.25 1012.42 1012.59 1012.71 1012.74 1012.70 1012.61 1012.53 1012.49 1012.52 1012.63 1012.79 1012.97 1013.13 1013.25 1013.32 1013.37 1013.42 1013.50 1013.65 1013.87 1014.18 1014.54
1005.30 1007.01 1008.92 1010.80 1012.42 1013.60 1014.26 1014.41 1014.15 1013.65 1013.10 1012.66 1012.45 1012.50 1012.76 1013.14 1013.52 1013.78 1013.85 1013.73 1013.45 1013.10 1012.75 1012.51 1012.41 1012.47 1012.63 1012.85 1013.06 1013.20 1013.26 1013.24 1013.18 1013.11 1013.08 1013.10 1013.19 1013.32 1013.46 1013.59 1013.67 1013.71 1013.74 1013.78 1013.86 1014.01 1014.25 1014.56 1014.93
1006.35 1008.17 1010.10 1011.88 1013.31 1014.25 1014.65 1014.55 1014.08 1013.43 1012.80 1012.34 1012.15 1012.24 1012.56 1012.98 1013.40 1013.69 1013.79 1013.71 1013.47 1013.18 1012.91 1012.74 1012.71 1012.82 1013.03 1013.28 1013.51 1013.66 1013.73 1013.71 1013.66 1013.60 1013.57 1013.59 1013.67 1013.77 1013.88 1013.98 1014.03 1014.06 1014.09 1014.14 1014.24 1014.42 1014.68 1015.00 1015.37
1007.48 1009.31 1011.14 1012.74 1013.94 1014.62 1014.78 1014.48 1013.88 1013.18 1012.55 1012.14 1012.03 1012.19 1012.56 1013.02 1013.45 1013.74 1013.85 1013.78 1013.59 1013.34 1013.14 1013.04 1013.08 1013.23 1013.46 1013.72 1013.93 1014.07 1014.12 1014.11 1014.05 1014.00 1013.98 1014.00 1014.07 1014.17 1014.26 1014.33 1014.38 1014.41 1014.45 1014.52 1014.65 1014.86 1015.13 1015.47 1015.85
1008.56 1010.30 1011.94 1013.31 1014.24 1014.68 1014.64 1014.22 1013.58 1012.91 1012.37 1012.08 1012.07 1012.32 1012.74 1013.22 1013.64 1013.91 1014.01 1013.95 1013.78 1013.60 1013.46 1013.43 1013.51 1013.69 1013.92 1014.15 1014.33 1014.44 1014.46 1014.43 1014.37 1014.33 1014.32 1014.37 1014.45 1014.54 1014.63 1014.70 1014.74 1014.78 1014.83 1014.92 1015.07 1015.30 1015.60 1015.94 1016.31
1009.47 1011.03 1012.43 1013.52 1014.19 1014.42 1014.24 1013.78 1013.19 1012.63 1012.25 1012.12 1012.24 1012.58 1013.05 1013.52 1013.90 1014.14 1014.22 1014.16 1014.03 1013.90 1013.83 1013.86 1013.98 1014.18 1014.40 1014.58 1014.71 1014.76 1014.75 1014.70 1014.65 1014.63 1014.65 1014.73 1014.83 1014.94 1015.03 1015.10 1015.14 1015.17 1015.22 1015.32 1015.49 1015.73 1016.03 1016.37 1016.73
1010.15 1011.48 1012.60 1013.40 1013.83 1013.88 1013.64 1013.20 1012.73 1012.35 1012.16 1012.21 1012.47 1012.89 1013.37 1013.82 1014.16 1014.35 1014.40 1014.35 1014.26 1014.20 1014.20 1014.29 1014.46 1014.66 1014.85 1014.99 1015.06 1015.06 1015.01 1014.95 1014.91 1014.93 1015.00 1015.12 1015.26 1015.39 1015.48 1015.54 1015.57 1015.59 1015.63 1015.73 1015.89 1016.13 1016.42 1016.76 1017.09
1010.61 1011.67 1012.49 1013.03 1013.24 1013.17 1012.90 1012.55 1012.23 1012.05 1012.07 1012.30 1012.69 1013.16 1013.65 1014.05 1014.33 1014.47 1014.50 1014.46 1014.42 1014.43 1014.51 1014.67 1014.87 1015.08 1015.25 1015.35 1015.36 1015.32 1015.25 1015.19 1015.19 1015.25 1015.38 1015.55 1015.73 1015.88 1015.98 1016.03 1016.03 1016.03 1016.05 1016.13 1016.28 1016.50 1016.78 1017.10 1017.42
1010.90 1011.68 1012.22 1012.51 1012.54 1012.39 1012.14 1011.89 1011.75 1011.77 1011.98 1012.35 1012.83 1013.34 1013.80 1014.15 1014.37 1014.46 1014.47 1014.46 1014.47 1014.56 1014.72 1014.95 1015.20 1015.42 1015.57 1015.64 1015.62 1015.56 1015.48 1015.44 1015.48 1015.60 1015.79 1016.01 1016.23 1016.40 1016.51 1016.54 1016.51 1016.48 1016.47 1016.52 1016.65 1016.86 1017.13 1017.43 1017.74
1011.12 1011.64 1011.92 1011.99 1011.88 1011.67 1011.45 1011.32 1011.32 1011.52 1011.88 1012.36 1012.89 1013.40 1013.82 1014.11 1014.27 1014.32 1014.32 1014.34 1014.41 1014.58 1014.82 1015.11 1015.40 1015.64 1015.79 1015.85 1015.82 1015.75 1015.69 1015.68 1015.77 1015.95 1016.19 1016.47 1016.73 1016.92 1017.02 1017.03 1016.99 1016.92 1016.88 1016.91 1017.02 1017.22 1017.48 1017.78 1018.08
1011.37 1011.65 1011.72 1011.60 1011.38 1011.13 1010.95 1010.89 1011.02 1011.33 1011.79 1012.33 1012.88 1013.36 1013.73 1013.96 1014.06 1014.09 1014.09 1014.14 1014.27 1014.50 1014.80 1015.15 1015.48 1015.74 1015.90 1015.96 1015.94 1015.89 1015.86 1015.90 1016.03 1016.26 1016.56 1016.88 1017.16 1017.37 1017.47 1017.48 1017.42 1017.34 1017.28 1017.30 1017.41 1017.60 1017.87 1018.17 1018.47
1011.72 1011.82 1011.70 1011.45 1011.13 1010.85 1010.68 1010.68 1010.87 1011.25 1011.74 1012.30 1012.83 1013.27 1013.58 1013.75 1013.82 1013.83 1013.84 1013.91 1014.08 1014.36 1014.71 1015.09 1015.44 1015.73 1015.91 1015.99 1015.99 1015.98 1015.98 1016.07 1016.25 1016.52 1016.85 1017.19 1017.49 1017.71 1017.82 1017.84 1017.78 1017.71 1017.66 1017.69 1017.81 1018.01 1018.29 1018.60 1018.90
1012.22 1012.17 1011.93 1011.57 1011.19 1010.87 1010.70 1010.71 1010.91 1011.29 1011.77 1012.28 1012.76 1013.15 1013.41 1013.55 1013.60 1013.60 1013.63 1013.72 1013.91 1014.20 1014.56 1014.95 1015.32 1015.62 1015.82 1015.93 1015.98 1016.01 1016.06 1016.19 1016.40 1016.69 1017.03 1017.38 1017.69 1017.91 1018.04 1018.08 1018.05 1018.01 1018.00 1018.06 1018.21 1018.43 1018.72 1019.04 1019.35
1012.84 1012.69 1012.36 1011.93 1011.51 1011.17 1010.98 1010.96 1011.13 1011.45 1011.87 1012.31 1012.72 1013.04 1013.26 1013.38 1013.43 1013.44 1013.48 1013.59 1013.78 1014.06 1014.41 1014.78 1015.14 1015.45 1015.67 1015.83 1015.93 1016.01 1016.11 1016.26 1016.49 1016.78 1017.11 1017.45 1017.75 1017.98 1018.13 1018.21 1018.23 1018.25 1018.29 1018.40 1018.58 1018.84 1019.15 1019.47 1019.78
1013.51 1013.30 1012.92 1012.48 1012.04 1011.69 1011.47 1011.41 1011.50 1011.72 1012.03 1012.36 1012.68 1012.94 1013.13 1013.24 1013.30 1013.34 1013.40 1013.51 1013.69 1013.94 1014.25 1014.59 1014.93 1015.24 1015.49 1015.70 1015.86 1016.00 1016.15 1016.33 1016.56 1016.83 1017.13 1017.43 1017.70 1017.93 1018.11 1018.23 1018.32 1018.41 1018.52 1018.69 1018.91 1019.19 1019.52 1019.84 1020.15
1014.12 1013.90 1013.54 1013.12 1012.71 1012.37 1012.12 1011.99 1011.97 1012.05 1012.21 1012.41 1012.62 1012.80 1012.96 1013.08 1013.17 1013.24 1013.33 1013.44 1013.60 1013.82 1014.08 1014.38 1014.70 1015.01 1015.30 1015.56 1015.79 1016.00 1016.20 1016.40 1016.62 1016.85 1017.10 1017.36 1017.60 1017.82 1018.01 1018.18 1018.34 1018.51 1018.69 1018.92 1019.18 1019.48 1019.81 1020.13 1020.43
1014.60 1014.41 1014.12 1013.79 1013.45 1013.14 1012.87 1012.66 1012.51 1012.42 1012.39 1012.41 1012.48 1012.58 1012.69 1012.82 1012.94 1013.06 1013.18 1013.31 1013.47 1013.65 1013.88 1014.14 1014.45 1014.77 1015.11 1015.44 1015.74 1016.02 1016.27 1016.50 1016.70 1016.89 1017.09 1017.28 1017.48 1017.68 1017.89 1018.10 1018.32 1018.55 1018.80 1019.08 1019.37 1019.69 1020.01 1020.32 1020.61
1014.90 1014.79 1014.63 1014.44 1014.22 1013.97 1013.69 1013.39 1013.09 1012.79 1012.53 1012.34 1012.23 1012.21 1012.26 1012.39 1012.55 1012.72 1012.89 1013.06 1013.22 1013.40 1013.60 1013.85 1014.16 1014.51 1014.91 1015.31 1015.71 1016.07 1016.37 1016.62 1016.81 1016.96 1017.09 1017.22 1017.37 1017.55 1017.76 1018.00 1018.27 1018.56 1018.86 1019.17 1019.49 1019.80 1020.11 1020.41 1020.69
1015.01 1015.05 1015.07 1015.07 1015.00 1014.85 1014.58 1014.18 1013.70 1013.16 1012.63 1012.18 1011.85 1011.67 1011.64 1011.74 1011.93 1012.17 1012.41 1012.63 1012.83 1013.03 1013.24 1013.50 1013.82 1014.22 1014.68 1015.17 1015.66 1016.10 1016.47 1016.74 1016.93 1017.05 1017.12 1017.19 1017.29 1017.44 1017.64 1017.90 1018.20 1018.53 1018.87 1019.20 1019.52 1019.82 1020.11 1020.40 1020.67
1015.00 1015.23 1015.48 1015.71 1015.84 1015.79 1015.53 1015.04 1014.35 1013.54 1012.71 1011.95 1011.36 1010.99 1010.84 1010.90 1011.11 1011.40 1011.72 1012.02 1012.29 1012.53 1012.78 1013.07 1013.44 1013.89 1014.42 1014.99 1015.56 1016.08 1016.51 1016.82 1017.01 1017.10 1017.14 1017.16 1017.22 1017.34 1017.53 1017.80 1018.12 1018.47 1018.82 1019.15 1019.46 1019.75 1020.02 1020.28 1020.56
1014.96 1015.41 1015.93 1016.42 1016.75 1016.82 1016.56 1015.96 1015.06 1013.95 1012.79 1011.71 1010.83 1010.23 1009.93 1009.92 1010.13 1010.48 1010.89 1011.28 1011.63 1011.94 1012.25 1012.58 1013.00 1013.50 1014.09 1014.73 1015.37 1015.96 1016.44 1016.79 1016.99 1017.08 1017.09 1017.09 1017.12 1017.21 1017.40 1017.66 1017.99 1018.35 1018.70 1019.03 1019.32 1019.58 1019.83 1020.08 1020.35
1014.98 1015.68 1016.47 1017.21 1017.75 1017.93 1017.67 1016.95 1015.83 1014.43 1012.93 1011.51 1010.33 1009.48 1009.02 1008.93 1009.13 1009.52 1010.00 1010.48 1010.93 1011.32 1011.69 1012.07 1012.52 1013.06 1013.69 1014.37 1015.06 1015.70 1016.22 1016.60 1016.83 1016.93 1016.94 1016.93 1016.94 1017.03 1017.20 1017.47 1017.80 1018.15 1018.49 1018.81 1019.08 1019.31 1019.54 1019.77 1020.04
1015.14 1016.07 1017.12 1018.09 1018.79 1019.06 1018.78 1017.95 1016.62 1014.95 1013.14 1011.41 1009.94 1008.87 1008.24 1008.05 1008.23 1008.65 1009.19 1009.75 1010.27 1010.73 1011.15 1011.56 1012.03 1012.58 1013.22 1013.91 1014.62 1015.28 1015.84 1016.24 1016.50 1016.61 1016.64 1016.64 1016.66 1016.75 1016.92 1017.19 1017.51 1017.85 1018.19 1018.48 1018.73 1018.95 1019.15 1019.37 1019.64
1015.45 1016.58 1017.83 1018.98 1019.81 1020.13 1019.83 1018.90 1017.40 1015.50 1013.44 1011.45 1009.74 1008.47 1007.70 1007.42 1007.55 1007.97 1008.55 1009.16 1009.73 1010.23 1010.67 1011.10 1011.56 1012.09 1012.70 1013.37 1014.07 1014.72 1015.29 1015.72 1015.99 1016.14 1016.19 1016.21 1016.25 1016.35 1016.53 1016.80 1017.12 1017.46 1017.78 1018.06 1018.29 1018.49 1018.67 1018.88 1019.14
1015.87 1017.15 1018.53 1019.78 1020.68 1021.02 1020.69 1019.68 1018.06 1016.02 1013.79 1011.63 1009.76 1008.35 1007.46 1007.10 1007.18 1007.59 1008.16 1008.77 1009.36 1009.86 1010.30 1010.70 1011.12 1011.60 1012.15 1012.78 1013.43 1014.06 1014.62 1015.05 1015.35 1015.53 1015.62 1015.67 1015.73 1015.85 1016.04 1016.30 1016.62 1016.95 1017.26 1017.53 1017.75 1017.94 1018.12 1018.31 1018.56
1016.33 1017.68 1019.10 1020.38 1021.28 1021.60 1021.25 1020.20 1018.53 1016.43 1014.14 1011.92 1009.99 1008.51 1007.56 1007.13 1007.16 1007.52 1008.05 1008.63 1009.17 1009.63 1010.02 1010.37 1010.72 1011.13 1011.61 1012.17 1012.77 1013.35 1013.89 1014.32 1014.63 1014.83 1014.95 1015.03 1015.12 1015.25 1015.45 1015.71 1016.02 1016.34 1016.65 1016.92 1017.14 1017.32 1017.50 1017.69 1017.93
1016.73 1018.06 1019.44 1020.65 1021.49 1021.78 1021.40 1020.36 1018.73 1016.68 1014.45 1012.28 1010.39 1008.92 1007.96 1007.50 1007.47 1007.75 1008.19 1008.69 1009.15 1009.53 1009.84 1010.11 1010.38 1010.70 1011.10 1011.58 1012.12 1012.66 1013.16 1013.58 1013.90 1014.11 1014.25 1014.35 1014.45 1014.59 1014.78 1015.04 1015.34 1015.65 1015.95 1016.22 1016.45 1016.65 1016.84 1017.03 1017.27
1016.97 1018.19 1019.44 1020.53 1021.26 1021.48 1021.10 1020.12 1018.61 1016.72 1014.67 1012.67 1010.91 1009.54 1008.62 1008.14 1008.04 1008.22 1008.55 1008.92 1009.26 1009.53 1009.73 1009.90 1010.08 1010.33 1010.65 1011.06 1011.53 1012.02 1012.49 1012.89 1013.20 1013.42 1013.56 1013.67 1013.77 1013.89 1014.07 1014.31 1014.59 1014.89 1015.19 1015.47 1015.71 1015.94 1016.14 1016.36 1016.60
1017.01 1018.06 1019.12 1020.02 1020.61 1020.76 1020.40 1019.53 1018.21 1016.56 1014.78 1013.05 1011.51 1010.29 1009.44 1008.96 1008.80 1008.86 1009.04 1009.26 1009.44 1009.58 1009.66 1009.73 1009.84 1010.01 1010.27 1010.62 1011.04 1011.49 1011.92 1012.29 1012.58 1012.79 1012.92 1013.01 1013.08 1013.19 1013.33 1013.54 1013.79 1014.07 1014.37 1014.65 1014.92 1015.17 1015.41 1015.65 1015.92
Thickness
5854 5853 5848 5834 5805 5773 5763 5772 5780 5778 5778 5784 5786 5781 5771 5762 5756 5750 5766 5775 5775 5774 5774 5774 5774 5774 5775 5775 5775 5775 5775 5774 5772 5771 5771 5770 5769 5768 5767 5765 5764 5764 5763 5762 5760 5759 5757 5755 5754
5857 5854 5842 5821 5782 5753 5759 5775 5778 5781 5786 5790 5788 5781 5771 5765 5769 5767 5770 5774 5775 5774 5773 5773 5773 5773 5773 5773 5773 5773 5772 5771 5770 5769 5768 5768 5766 5765 5765 5763 5762 5761 5761 5759 5758 5756 5755 5753 5751
5859 5853 5828 5802 5775 5760 5766 5779 5782 5789 5795 5793 5784 5781 5772 5766 5770 5770 5773 5775 5775 5773 5772 5772 5772 5771 5771 5771 5771 5771 5770 5769 5768 5767 5766 5765 5764 5763 5762 5761 5760 5759 5758 5757 5755 5754 5753 5751 5749
5855 5839 5820 5792 5776 5781 5784 5787 5790 5790 5793 5793 5785 5775 5776 5779 5777 5776 5776 5776 5773 5772 5771 5771 5770 5770 5769 5769 5768 5768 5768 5767 5766 5765 5764 5763 5762 5761 5760 5759 5758 5757 5756 5755 5753 5752 5751 5749 5748
5849 5825 5796 5777 5781 5790 5796 5798 5797 5789 5788 5788 5784 5771 5769 5779 5782 5779 5776 5774 5772 5770 5770 5769 5769 5768 5767 5767 5767 5766 5765 5765 5763 5762 5762 5761 5760 5759 5758 5757 5756 5755 5754 5752 5751 5750 5749 5748 5746
5830 5813 5781 5770 5781 5793 5799 5802 5797 5790 5787 5787 5782 5771 5767 5777 5778 5777 5776 5773 5771 5770 5769 5768 5767 5766 5766 5765 5765 5764 5764 5763 5761 5761 5759 5759 5757 5756 5755 5754 5753 5752 5751 5750 5749 5748 5747 5746 5745
5822 5801 5783 5782 5783 5789 5799 5805 5797 5791 5786 5787 5787 5771 5768 5774 5778 5777 5775 5773 5771 5769 5767 5766 5765 5765 5764 5763 5763 5762 5761 5760 5759 5758 5758 5757 5755 5754 5753 5752 5751 5751 5749 5748 5747 5746 5745 5744 5743
5830 5805 5788 5785 5786 5790 5805 5807 5803 5796 5791 5798 5793 5774 5768 5776 5779 5777 5773 5771 5769 5767 5766 5765 5764 5763 5762 5761 5761 5760 5759 5758 5757 5756 5755 5754 5753 5753 5752 5751 5750 5749 5748 5747 5745 5744 5743 5743 5742
5836 5798 5783 5790 5793 5798 5808 5804 5804 5807 5799 5798 5797 5790 5787 5784 5780 5774 5769 5767 5766 5765 5764 5764 5763 5762 5761 5760 5759 5758 5757 5756 5755 5754 5753 5752 5751 5751 5750 5749 5749 5748 5746 5745 5744 5743 5742 5742 5741
5822 5793 5800 5811 5812 5809 5811 5806 5803 5799 5792 5790 5790 5791 5789 5784 5778 5772 5768 5765 5763 5763 5763 5763 5762 5761 5760 5759 5758 5756 5755 5754 5753 5752 5751 5750 5749 5749 5748 5748 5747 5746 5745 5744 5743 5742 5741 5740 5739
5823 5809 5817 5821 5823 5820 5811 5808 5809 5797 5787 5791 5789 5788 5786 5782 5777 5773 5770 5768 5766 5765 5764 5764 5762 5761 5759 5758 5756 5755 5754 5753 5752 5750 5750 5749 5748 5747 5746 5746 5745 5745 5744 5743 5742 5741 5740 5739 5738
5821 5821 5825 5825 5827 5821 5814 5811 5805 5800 5801 5807 5802 5796 5788 5781 5777 5775 5772 5770 5768 5766 5765 5765 5764 5761 5759 5757 5756 5754 5752 5751 5751 5750 5748 5748 5746 5745 5744 5744 5744 5743 5743 5742 5741 5740 5739 5738 5737
5819 5820 5827 5827 5825 5822 5817 5810 5807 5804 5811 5810 5802 5794 5788 5785 5781 5779 5777 5774 5771 5768 5767 5766 5765 5762 5760 5757 5756 5754 5752 5750 5750 5749 5748 5747 5746 5744 5743 5743 5743 5742 5742 5742 5741 5740 5739 5739 5738
5819 5820 5821 5822 5822 5822 5812 5808 5805 5803 5809 5805 5798 5792 5790 5787 5784 5780 5777 5775 5773 5771 5769 5768 5766 5764 5761 5758 5756 5754 5752 5750 5749 5748 5748 5746 5745 5744 5743 5742 5742 5742 5742 5741 5740 5740 5739 5739 5738
5821 5812 5811 5815 5817 5817 5811 5797 5801 5807 5807 5800 5796 5793 5791 5789 5787 5784 5782 5779 5777 5775 5773 5771 5769 5766 5763 5760 5757 5755 5753 5751 5749 5748 5747 5746 5745 5744 5743 5742 5742 5742 5742 5741 5740 5739 5739 5739 5738
5810 5796 5788 5805 5812 5813 5803 5783 5801 5807 5803 5796 5795 5793 5790 5789 5789 5789 5787 5784 5781 5778 5775 5774 5773 5768 5765 5762 5759 5757 5754 5752 5750 5749 5747 5746 5745 5744 5743 5742 5742 5742 5741 5741 5740 5739 5738 5737 5737
5783 5776 5780 5794 5808 5808 5798 5787 5800 5806 5802 5796 5795 5795 5792 5790 5790 5791 5790 5787 5784 5781 5778 5775 5774 5771 5768 5765 5761 5759 5756 5754 5751 5750 5748 5747 5746 5745 5744 5743 5743 5742 5741 5740 5740 5739 5737 5735 5735
5772 5774 5778 5783 5799 5801 5792 5790 5797 5803 5802 5797 5797 5795 5793 5792 5793 5794 5793 5790 5787 5784 5781 5778 5775 5773 5770 5766 5762 5759 5757 5755 5753 5751 5750 5749 5747 5746 5744 5743 5742 5741 5741 5740 5739 5738 5737 5735 5735
5784 5779 5776 5785 5801 5795 5788 5787 5794 5800 5799 5797 5796 5795 5795 5795 5797 5796 5795 5793 5789 5785 5782 5779 5776 5773 5770 5766 5762 5758 5755 5755 5754 5753 5752 5750 5749 5747 5745 5744 5742 5741 5740 5739 5739 5737 5736 5734 5734
5782 5776 5775 5783 5796 5791 5783 5784 5794 5798 5800 5802 5800 5799 5798 5795 5795 5795 5795 5794 5791 5788 5785 5782 5779 5776 5773 5770 5767 5762 5759 5757 5756 5755 5753 5751 5749 5748 5746 5744 5743 5742 5740 5739 5738 5737 5735 5734 5734
5776 5774 5776 5776 5783 5785 5780 5774 5784 5795 5801 5803 5804 5803 5801 5799 5797 5797 5796 5795 5794 5791 5788 5786 5783 5779 5776 5773 5768 5764 5760 5757 5755 5753 5752 5752 5750 5748 5747 5745 5744 5742 5741 5739 5739 5738 5735 5732 5732
5766 5783 5782 5778 5766 5755 5769 5749 5772 5785 5790 5796 5801 5803 5804 5804 5803 5800 5799 5797 5796 5795 5793 5789 5786 5783 5778 5774 5770 5765 5759 5755 5755 5754 5754 5753 5751 5749 5748 5746 5744 5743 5741 5740 5740 5739 5737 5734 5731
5775 5784 5779 5773 5761 5751 5756 5749 5761 5779 5781 5793 5803 5807 5809 5809 5807 5805 5804 5803 5801 5799 5795 5791 5787 5784 5780 5776 5772 5768 5763 5760 5758 5756 5754 5752 5751 5749 5748 5746 5744 5743 5742 5741 5740 5739 5737 5735 5733
5781 5770 5760 5748 5742 5731 5747 5744 5752 5769 5786 5798 5807 5811 5812 5812 5811 5809 5807 5805 5802 5801 5797 5793 5788 5784 5781 5777 5773 5770 5765 5761 5758 5755 5753 5752 5751 5750 5748 5747 5745 5744 5742 5741 5740 5739 5738 5736 5734
5768 5744 5722 5720 5711 5719 5742 5743 5752 5785 5799 5806 5811 5814 5816 5815 5811 5808 5805 5804 5802 5800 5798 5794 5789 5785 5782 5778 5774 5772 5768 5764 5760 5757 5754 5752 5750 5749 5748 5747 5745 5744 5743 5741 5740 5739 5738 5736 5734
5755 5746 5720 5709 5707 5717 5736 5738 5765 5794 5803 5811 5814 5815 5815 5814 5813 5811 5809 5806 5804 5802 5799 5795 5790 5785 5782 5778 5775 5772 5769 5765 5762 5760 5757 5754 5752 5750 5749 5747 5746 5745 5744 5742 5740 5739 5738 5736 5735
5747 5740 5743 5720 5716 5715 5723 5742 5769 5793 5797 5803 5808 5810 5811 5813 5814 5813 5811 5808 5806 5803 5800 5797 5790 5785 5781 5778 5775 5772 5769 5766 5763 5761 5758 5756 5754 5752 5750 5748 5746 5745 5743 5742 5740 5738 5737 5735 5734
5756 5741 5725 5714 5701 5704 5722 5734 5747 5773 5783 5792 5798 5803 5808 5811 5812 5812 5810 5808 5806 5803 5799 5795 5791 5787 5783 5779 5776 5773 5770 5767 5764 5761 5758 5756 5755 5752 5749 5748 5746 5744 5743 5741 5739 5737 5736 5733 5732
5742 5735 5722 5709 5713 5701 5706 5726 5764 5772 5781 5785 5793 5800 5805 5808 5810 5810 5809 5807 5804 5801 5798 5794 5790 5786 5783 5780 5778 5774 5771 5768 5764 5761 5759 5757 5754 5752 5749 5747 5745 5743 5741 5739 5737 5735 5734 5731 5729
5750 5738 5726 5716 5706 5705 5708 5726 5772 5775 5780 5784 5790 5796 5801 5804 5805 5805 5804 5802 5800 5797 5795 5792 5789 5786 5783 5781 5777 5775 5772 5767 5764 5761 5759 5757 5754 5751 5748 5746 5743 5741 5739 5737 5735 5733 5732 5729 5727